N5XL Weather Reports


time (UTC)temp
C
wind
direction
speed
KPH
gust
KPH
rain 1hr
cm
rain 24hr
cm
rain mn
cm
humidity
%
barometer
mb
20260508014503 32 260 6.4 12.9 0.00 0.00 0.00 9 1009.4
20260508013603 33 247 6.4 12.9 0.00 0.00 0.00 9 1009.3
20260508012703 33 262 8.0 17.7 0.00 0.00 0.00 10 1009.4
20260508011803 33 254 9.7 17.7 0.00 0.00 0.00 9 1009.6
20260508010903 33 251 9.7 17.7 0.00 0.00 0.00 9 1009.5
20260508010024 33 271 11.3 24.1 0.00 0.00 0.00 10 1009.6
20260508004503 33 270 9.7 25.7 0.00 0.00 0.00 10 1009.3
20260508003603 33 279 6.4 17.7 0.00 0.00 0.00 10 1009.3
20260508002704 33 245 8.0 24.1 0.00 0.00 0.00 10 1009.6
20260508001803 34 265 9.7 24.1 0.00 0.00 0.00 10 1009.4
20260508000903 34 230 4.8 17.7 0.00 0.00 0.00 10 1009.3
20260508000004 34 239 3.2 14.5 0.00 0.00 0.00 10 1009.7
20260507235403 34 219 4.8 11.3 0.00 0.00 0.00 11 1009.4
20260507234505 34 260 6.4 17.7 0.00 0.00 0.00 11 1009.5
20260507233624 34 257 6.4 17.7 0.00 0.00 0.00 10 1009.5
20260507232703 34 275 8.0 16.1 0.00 0.00 0.00 11 1009.7
20260507231803 34 221 6.4 16.1 0.00 0.00 0.00 11 1009.6
20260507230903 34 250 9.7 24.1 0.00 0.00 0.00 11 1009.7
20260507230003 33 292 8.0 17.7 0.00 0.00 0.00 11 1009.5
20260507225424 33 300 6.4 20.9 0.00 0.00 0.00 11 1009.6
20260507224504 34 266 8.0 17.7 0.00 0.00 0.00 11 1009.8
20260507223604 34 274 3.2 9.7 0.00 0.00 0.00 12 1009.9
20260507222724 34 248 6.4 14.5 0.00 0.00 0.00 11 1010.1
20260507221804 33 241 6.4 14.5 0.00 0.00 0.00 12 1009.9
20260507220903 33 253 6.4 14.5 0.00 0.00 0.00 11 1010.2
20260507220004 34 276 6.4 14.5 0.00 0.00 0.00 11 1010.3
20260507215403 34 255 3.2 12.9 0.00 0.00 0.00 10 1010.2
20260507214503 35 143 3.2 6.4 0.00 0.00 0.00 10 1010.4
20260507213605 34 253 4.8 14.5 0.00 0.00 0.00 11 1010.6
20260507212724 35 73 1.6 6.4 0.00 0.00 0.00 11 1010.6
20260507211803 35 141 3.2 11.3 0.00 0.00 0.00 13 1010.8
20260507210925 34 106 3.2 9.7 0.00 0.00 0.00 13 1010.9
20260507210003 33 47 1.6 11.3 0.00 0.00 0.00 11 1011.1
20260507205403 33 12 4.8 16.1 0.00 0.00 0.00 11 1011.1
20260507204505 33 346 4.8 14.5 0.00 0.00 0.00 11 1011.2
20260507203603 34 92 1.6 6.4 0.00 0.00 0.00 12 1011.2
20260507202704 33 209 4.8 12.9 0.00 0.00 0.00 12 1011.3
20260507201824 32 248 4.8 11.3 0.00 0.00 0.00 13 1011.5
20260507200903 32 250 3.2 11.3 0.00 0.00 0.00 14 1011.7
20260507200003 32 4 4.8 17.7 0.00 0.00 0.00 13 1011.8
20260507195424 32 335 3.2 17.7 0.00 0.00 0.00 14 1011.9
20260507194503 32 310 4.8 12.9 0.00 0.00 0.00 16 1011.9
20260507193604 32 345 3.2 12.9 0.00 0.00 0.00 15 1012.1
20260507192703 31 24 4.8 12.9 0.00 0.00 0.00 16 1012.3
20260507191803 31 354 4.8 14.5 0.00 0.00 0.00 15 1012.5
20260507190903 31 21 4.8 11.3 0.00 0.00 0.00 16 1012.5
20260507190024 31 214 3.2 6.4 0.00 0.00 0.00 15 1012.6
20260507185403 31 56 3.2 9.7 0.00 0.00 0.00 19 1012.8
20260507184504 30 258 1.6 4.8 0.00 0.00 0.00 17 1012.9
20260507183604 30 317 3.2 12.9 0.00 0.00 0.00 17 1013.1
20260507182724 30 91 3.2 9.7 0.00 0.00 0.00 19 1013.1
20260507181803 30 312 3.2 11.3 0.00 0.00 0.00 18 1013.4
20260507180903 29 341 4.8 12.9 0.00 0.00 0.00 19 1013.4
20260507180003 29 332 4.8 12.9 0.00 0.00 0.00 18 1013.4
20260507175403 29 275 6.4 14.5 0.00 0.00 0.00 20 1013.4
20260507173603 29 54 1.6 11.3 0.00 0.00 0.00 19 1013.6
20260507172705 30 94 1.6 4.8 0.00 0.00 0.00 21 1013.5
20260507171805 28 86 1.6 9.7 0.00 0.00 0.00 20 1013.8
20260507170906 28 176 1.6 9.7 0.00 0.00 0.00 20 1013.7
20260507170003 27 13 3.2 9.7 0.00 0.00 0.00 20 1013.9
20260507165403 27 322 3.2 6.4 0.00 0.00 0.00 19 1013.8
20260507164503 28 275 1.6 6.4 0.00 0.00 0.00 19 1013.8
20260507163603 28 111 0.0 3.2 0.00 0.00 0.00 21 1013.9
20260507162703 27 128 1.6 4.8 0.00 0.00 0.00 21 1014.1
20260507161803 26 101 1.6 6.4 0.00 0.00 0.00 22 1014.2
20260507160903 26 82 0.0 3.2 0.00 0.00 0.00 20 1014.2
20260507160005 26 119 0.0 4.8 0.00 0.00 0.00 21 1014.2
20260507155425 25 113 1.6 4.8 0.00 0.00 0.00 22 1014.2
20260507154504 25 97 0.0 3.2 0.00 0.00 0.00 22 1014.4
20260507153624 25 213 1.6 4.8 0.00 0.00 0.00 23 1014.2
20260507152703 25 222 1.6 4.8 0.00 0.00 0.00 21 1014.2
20260507151804 24 223 3.2 9.7 0.00 0.00 0.00 22 1014.4
20260507150924 23 206 3.2 4.8 0.00 0.00 0.00 22 1014.2
20260507150025 22 171 1.6 4.8 0.00 0.00 0.00 24 1014.5
20260507145403 22 131 0.0 4.8 0.00 0.00 0.00 25 1014.3
20260507144503 21 0 0.0 1.6 0.00 0.00 0.00 24 1014.4
20260507143603 20 208 0.0 3.2 0.00 0.00 0.00 26 1014.3
20260507142703 20 213 0.0 3.2 0.00 0.00 0.00 26 1014.5
20260507141824 19 0 0.0 0.0 0.00 0.00 0.00 29 1014.3
20260507140924 18 83 0.0 1.6 0.00 0.00 0.00 30 1014.3
20260507140025 17 89 1.6 4.8 0.00 0.00 0.00 30 1014.3
20260507135403 17 90 1.6 4.8 0.00 0.00 0.00 31 1014.3
20260507134504 16 98 0.0 3.2 0.00 0.00 0.00 32 1014.2
20260507133604 16 94 1.6 4.8 0.00 0.00 0.00 32 1014.1
20260507132704 15 0 0.0 0.0 0.00 0.00 0.00 33 1014.0
20260507131803 15 0 0.0 0.0 0.00 0.00 0.00 30 1013.9
20260507130904 14 0 0.0 0.0 0.00 0.00 0.00 28 1014.1
20260507130004 14 0 0.0 0.0 0.00 0.00 0.00 29 1013.6
20260507125404 14 275 0.0 1.6 0.00 0.00 0.00 29 1013.8
20260507124503 13 275 1.6 3.2 0.00 0.00 0.00 29 1013.8
20260507123604 14 275 0.0 1.6 0.00 0.00 0.00 28 1013.7
20260507122705 14 0 0.0 0.0 0.00 0.00 0.00 32 1013.7
20260507121824 14 0 0.0 0.0 0.00 0.00 0.00 31 1013.7
20260507120903 14 0 0.0 1.6 0.00 0.00 0.00 30 1013.6
20260507120004 13 275 0.0 1.6 0.00 0.00 0.00 27 1013.5
20260507115403 14 275 0.0 1.6 0.00 0.00 0.00 26 1013.8
20260507114503 15 282 0.0 1.6 0.00 0.00 0.00 28 1013.5
20260507113603 14 283 0.0 3.2 0.00 0.00 0.00 27 1013.6
20260507112703 14 282 0.0 3.2 0.00 0.00 0.00 26 1013.8
20260507111803 15 0 0.0 1.6 0.00 0.00 0.00 25 1013.7
20260507110903 15 0 0.0 1.6 0.00 0.00 0.00 25 1013.7
20260507110003 16 0 0.0 1.6 0.00 0.00 0.00 26 1013.9
20260507105403 16 0 0.0 1.6 0.00 0.00 0.00 27 1013.8
20260507104504 17 160 0.0 1.6 0.00 0.00 0.00 28 1013.7
20260507103604 17 0 0.0 1.6 0.00 0.00 0.00 28 1013.9
20260507102703 17 161 0.0 3.2 0.00 0.00 0.00 29 1013.9
20260507101803 17 162 0.0 3.2 0.00 0.00 0.00 29 1014.0
20260507100904 17 135 0.0 1.6 0.00 0.00 0.00 29 1014.1
20260507100005 17 102 0.0 1.6 0.00 0.00 0.00 29 1014.0
20260507095404 17 92 0.0 3.2 0.00 0.00 0.00 28 1013.9
20260507094504 18 79 1.6 3.2 0.00 0.00 0.00 29 1014.1
20260507093603 18 49 1.6 3.2 0.00 0.00 0.00 29 1014.1
20260507092703 18 8 0.0 1.6 0.00 0.00 0.00 28 1013.9
20260507091803 18 1 0.0 1.6 0.00 0.00 0.00 28 1014.0
20260507090903 18 360 0.0 1.6 0.00 0.00 0.00 29 1014.1
20260507090004 18 0 0.0 0.0 0.00 0.00 0.00 29 1014.2
20260507085425 18 0 0.0 0.0 0.00 0.00 0.00 28 1014.3
20260507084503 18 0 0.0 0.0 0.00 0.00 0.00 29 1014.2
20260507083604 18 0 0.0 0.0 0.00 0.00 0.00 29 1014.2
20260507082703 18 0 0.0 0.0 0.00 0.00 0.00 29 1014.4
20260507081804 18 0 0.0 0.0 0.00 0.00 0.00 28 1014.3
20260507080924 18 0 0.0 0.0 0.00 0.00 0.00 27 1014.3
20260507080004 17 0 0.0 0.0 0.00 0.00 0.00 26 1014.2
20260507075403 17 0 0.0 0.0 0.00 0.00 0.00 24 1014.5
20260507074503 18 190 0.0 3.2 0.00 0.00 0.00 25 1014.5
20260507073624 18 190 0.0 3.2 0.00 0.00 0.00 26 1014.5
20260507072703 19 0 0.0 0.0 0.00 0.00 0.00 27 1014.7
20260507071803 18 168 0.0 1.6 0.00 0.00 0.00 26 1014.3
20260507070903 18 0 0.0 0.0 0.00 0.00 0.00 26 1014.4
20260507070008 18 0 0.0 0.0 0.00 0.00 0.00 24 1014.6
20260507065424 18 0 0.0 0.0 0.00 0.00 0.00 23 1014.4
20260507064503 19 0 0.0 0.0 0.00 0.00 0.00 23 1014.4
20260507063603 20 0 0.0 0.0 0.00 0.00 0.00 24 1014.5
20260507062703 20 0 0.0 0.0 0.00 0.00 0.00 24 1014.5
20260507061803 20 152 0.0 1.6 0.00 0.00 0.00 26 1014.5
20260507060904 20 151 0.0 3.2 0.00 0.00 0.00 26 1014.5
20260507060004 20 193 1.6 3.2 0.00 0.00 0.00 26 1014.5
20260507055403 20 215 0.0 1.6 0.00 0.00 0.00 24 1014.4
20260507054504 21 0 0.0 0.0 0.00 0.00 0.00 22 1014.4
20260507053603 21 219 0.0 3.2 0.00 0.00 0.00 24 1014.5
20260507052703 21 224 0.0 3.2 0.00 0.00 0.00 24 1014.5
20260507051803 21 0 0.0 0.0 0.00 0.00 0.00 23 1014.5
20260507050924 21 0 0.0 0.0 0.00 0.00 0.00 23 1014.3
20260507050003 21 0 0.0 0.0 0.00 0.00 0.00 22 1014.2
20260507045403 21 0 0.0 0.0 0.00 0.00 0.00 22 1014.1
20260507044503 22 0 0.0 0.0 0.00 0.00 0.00 22 1014.2
20260507043603 22 0 0.0 0.0 0.00 0.00 0.00 23 1014.2
20260507042703 22 0 0.0 0.0 0.00 0.00 0.00 23 1014.2
20260507041803 23 0 0.0 0.0 0.00 0.00 0.00 22 1014.1
20260507040903 23 0 0.0 0.0 0.00 0.00 0.00 23 1013.8
20260507040003 23 0 0.0 0.0 0.00 0.00 0.00 22 1013.8
20260507035403 23 0 0.0 0.0 0.00 0.00 0.00 22 1013.6
20260507034503 23 0 0.0 0.0 0.00 0.00 0.00 21 1013.7
20260507033624 24 255 0.0 1.6 0.00 0.00 0.00 21 1013.6
20260507032703 24 256 1.6 3.2 0.00 0.00 0.00 21 1013.5
20260507031803 24 247 1.6 3.2 0.00 0.00 0.00 20 1013.5
20260507030903 25 0 0.0 0.0 0.00 0.00 0.00 20 1013.3
20260507030004 25 0 0.0 0.0 0.00 0.00 0.00 19 1013.4
20260507025424 25 220 0.0 3.2 0.00 0.00 0.00 19 1013.3
20260507024524 25 237 1.6 4.8 0.00 0.00 0.00 19 1013.3
20260507023603 26 245 1.6 3.2 0.00 0.00 0.00 19 1013.1
20260507022703 26 254 1.6 4.8 0.00 0.00 0.00 18 1013.1
20260507021804 26 263 3.2 4.8 0.00 0.00 0.00 18 1012.9
20260507020903 27 265 3.2 6.4 0.00 0.00 0.00 17 1012.8
20260507020024 27 254 3.2 9.7 0.00 0.00 0.00 18 1012.8
20260507015404 27 265 4.8 11.3 0.00 0.00 0.00 17 1012.7